CSN6450 ZSHC-ZYTL

Flight info

Callsign CSN6450
Flight time 1h 48m
Altitude 34100
Route SUPAR V73 JTN W116 PK G455 HSH V2 ODULO B221 XDX W174 FD W172 IGDEG W173 NIXEP
Aircraft A21N/M-SDE3FGHIRWY/LB1

Departure

Time 2026-04-30 13:00
Airport Hangzhou Xiaoshan International Airport (ZSHC)

Arrival

Time 2026-04-30 14:49
Airport Dalian Zhoushuizi International Airport (ZYTL)
Time Latitude Longitude Altitude Speed Heading
2026-04-30 12:41 30.23811 120.43383 40 ft 0 kts 242°
2026-04-30 12:44 30.23811 120.43384 40 ft 1 kts 243°
2026-04-30 12:45 30.23818 120.43399 40 ft 2 kts 242°
2026-04-30 12:45 30.23825 120.43415 40 ft 2 kts 243°
2026-04-30 12:45 30.23832 120.43430 40 ft 2 kts 242°
2026-04-30 12:45 30.23838 120.43447 40 ft 2 kts 259°
2026-04-30 12:46 30.23838 120.43464 40 ft 2 kts 279°
2026-04-30 12:46 30.23834 120.43481 40 ft 2 kts 300°
2026-04-30 12:46 30.23825 120.43494 40 ft 2 kts 319°
2026-04-30 12:46 30.23812 120.43504 40 ft 2 kts 337°
2026-04-30 12:47 30.23798 120.43511 40 ft 2 kts 332°
2026-04-30 12:47 30.23785 120.43519 40 ft 2 kts 333°
2026-04-30 12:47 30.23772 120.43526 40 ft 1 kts 333°
2026-04-30 12:47 30.23771 120.43527 40 ft 0 kts 333°
2026-04-30 12:49 30.23771 120.43526 40 ft 1 kts 333°
2026-04-30 12:49 30.23803 120.43508 40 ft 7 kts 333°
2026-04-30 12:49 30.23845 120.43491 40 ft 6 kts
2026-04-30 12:50 30.23869 120.43515 40 ft 8 kts 57°
2026-04-30 12:50 30.23905 120.43596 40 ft 9 kts 63°
2026-04-30 12:50 30.23937 120.43669 40 ft 11 kts 63°
2026-04-30 12:50 30.23968 120.43740 40 ft 8 kts 69°
2026-04-30 12:51 30.23944 120.43797 40 ft 10 kts 152°
2026-04-30 12:51 30.23880 120.43834 40 ft 11 kts 153°
2026-04-30 12:51 30.23809 120.43876 40 ft 12 kts 153°
2026-04-30 12:51 30.23731 120.43922 40 ft 13 kts 153°
2026-04-30 12:52 30.23648 120.43971 40 ft 14 kts 152°
2026-04-30 12:52 30.23560 120.44023 40 ft 11 kts 153°
2026-04-30 12:52 30.23507 120.44037 40 ft 8 kts 201°
2026-04-30 12:52 30.23473 120.43982 40 ft 9 kts 242°
2026-04-30 12:53 30.23437 120.43902 40 ft 14 kts 243°
2026-04-30 12:53 30.23391 120.43798 40 ft 15 kts 242°
2026-04-30 12:53 30.23342 120.43688 40 ft 16 kts 243°
2026-04-30 12:53 30.23292 120.43573 40 ft 16 kts 243°
2026-04-30 12:54 30.23239 120.43454 40 ft 17 kts 243°
2026-04-30 12:54 30.23185 120.43333 40 ft 17 kts 243°
2026-04-30 12:54 30.23130 120.43209 40 ft 18 kts 243°
2026-04-30 12:54 30.23074 120.43082 40 ft 18 kts 242°
2026-04-30 12:55 30.23018 120.42954 40 ft 18 kts 243°
2026-04-30 12:55 30.22960 120.42823 40 ft 18 kts 243°
2026-04-30 12:55 30.22902 120.42691 40 ft 19 kts 242°
2026-04-30 12:55 30.22842 120.42557 40 ft 19 kts 243°
2026-04-30 12:56 30.22783 120.42423 40 ft 19 kts 243°
2026-04-30 12:56 30.22723 120.42288 40 ft 19 kts 243°
2026-04-30 12:56 30.22663 120.42151 40 ft 19 kts 242°
2026-04-30 12:56 30.22602 120.42014 40 ft 19 kts 243°
2026-04-30 12:57 30.22541 120.41877 40 ft 17 kts 243°
2026-04-30 12:57 30.22490 120.41761 40 ft 14 kts 243°
2026-04-30 12:57 30.22452 120.41683 40 ft 8 kts 224°
2026-04-30 12:57 30.22392 120.41684 40 ft 10 kts 154°
2026-04-30 12:58 30.22326 120.41722 40 ft 10 kts 153°
2026-04-30 12:58 30.22308 120.41733 40 ft 0 kts 153°
2026-04-30 12:58 30.22302 120.41736 40 ft 3 kts 153°
2026-04-30 12:58 30.22266 120.41757 40 ft 8 kts 153°
2026-04-30 12:59 30.22235 120.41806 40 ft 9 kts 90°
2026-04-30 12:59 30.22251 120.41862 40 ft 0 kts 63°
2026-04-30 12:59 30.22302 120.41979 40 ft 47 kts 62°
2026-04-30 13:00 30.22562 120.42567 41 ft 115 kts 63°
2026-04-30 13:00 30.23020 120.43595 69 ft 168 kts 64°
2026-04-30 13:00 30.23548 120.44787 700 ft 166 kts 63°
2026-04-30 13:00 30.23967 120.45999 1408 ft 165 kts 80°
2026-04-30 13:01 30.23930 120.47297 2013 ft 162 kts 94°
2026-04-30 13:01 30.23792 120.48646 2249 ft 176 kts 94°
2026-04-30 13:01 30.23632 120.50105 2522 ft 189 kts 95°
2026-04-30 13:01 30.23464 120.51670 2805 ft 203 kts 95°
2026-04-30 13:02 30.23289 120.53349 3098 ft 218 kts 94°
2026-04-30 13:02 30.23107 120.55155 3342 ft 238 kts 94°
2026-04-30 13:02 30.22855 120.57098 3728 ft 254 kts 99°
2026-04-30 13:02 30.22404 120.59164 4128 ft 270 kts 104°
2026-04-30 13:03 30.21833 120.61259 4749 ft 278 kts 105°
2026-04-30 13:03 30.21239 120.63391 5430 ft 283 kts 104°
2026-04-30 13:03 30.20635 120.65570 6186 ft 287 kts 104°
2026-04-30 13:03 30.20031 120.67776 6882 ft 293 kts 104°
2026-04-30 13:04 30.19396 120.70034 7565 ft 301 kts 107°
2026-04-30 13:04 30.18549 120.72254 8284 ft 307 kts 116°
2026-04-30 13:04 30.17459 120.74412 8976 ft 313 kts 120°
2026-04-30 13:04 30.16294 120.76544 9651 ft 318 kts 122°
2026-04-30 13:05 30.15233 120.78798 10272 ft 321 kts 105°
2026-04-30 13:05 30.15049 120.81337 10702 ft 323 kts 75°
2026-04-30 13:05 30.15948 120.83667 11025 ft 321 kts 44°
2026-04-30 13:06 30.19680 120.86203 12138 ft 316 kts 16°
2026-04-30 13:06 30.21731 120.87198 12775 ft 320 kts 15°
2026-04-30 13:06 30.23809 120.88224 13320 ft 327 kts 15°
2026-04-30 13:06 30.25913 120.89278 13859 ft 333 kts 16°
2026-04-30 13:07 30.28039 120.90356 14473 ft 336 kts 16°
2026-04-30 13:07 30.30180 120.91451 15086 ft 339 kts 15°
2026-04-30 13:07 30.32344 120.92561 15641 ft 343 kts 15°
2026-04-30 13:07 30.34531 120.93686 16196 ft 347 kts 15°
2026-04-30 13:08 30.36757 120.94833 16737 ft 351 kts 14°
2026-04-30 13:08 30.39004 120.95989 17254 ft 355 kts 14°
2026-04-30 13:08 30.41263 120.97155 17768 ft 359 kts 14°
2026-04-30 13:08 30.43545 120.98336 18296 ft 362 kts 14°
2026-04-30 13:09 30.45847 120.99525 18800 ft 365 kts 14°
2026-04-30 13:09 30.48169 121.00728 19291 ft 369 kts 13°
2026-04-30 13:09 30.50518 121.01942 19746 ft 373 kts 13°
2026-04-30 13:09 30.52878 121.03164 20206 ft 376 kts 13°
2026-04-30 13:10 30.55312 121.04422 20648 ft 381 kts 13°
2026-04-30 13:10 30.57726 121.05677 21141 ft 383 kts 13°
2026-04-30 13:10 30.60176 121.06945 21573 ft 386 kts 13°
2026-04-30 13:10 30.62642 121.08227 22056 ft 388 kts 12°
2026-04-30 13:11 30.65120 121.09513 22477 ft 391 kts 13°
2026-04-30 13:11 30.67610 121.10806 22870 ft 395 kts 12°
2026-04-30 13:11 30.70141 121.12119 23287 ft 398 kts 13°
2026-04-30 13:11 30.72672 121.13438 23689 ft 401 kts 12°
2026-04-30 13:12 30.75226 121.14766 24043 ft 405 kts 13°
2026-04-30 13:12 30.77801 121.16104 24480 ft 407 kts 12°
2026-04-30 13:12 30.80383 121.17455 24904 ft 408 kts 12°
2026-04-30 13:13 30.85610 121.20182 25665 ft 414 kts 12°
2026-04-30 13:13 30.88269 121.21570 26018 ft 417 kts 12°
2026-04-30 13:13 30.93600 121.24350 26714 ft 423 kts 12°
2026-04-30 13:14 30.96283 121.25756 27064 ft 425 kts 12°
2026-04-30 13:14 30.98983 121.27171 27419 ft 427 kts 13°
2026-04-30 13:14 31.04434 121.30026 28067 ft 432 kts 13°
2026-04-30 13:15 31.07204 121.31477 28332 ft 436 kts 13°
2026-04-30 13:15 31.12872 121.33631 28946 ft 417 kts 357°
2026-04-30 13:15 31.15728 121.33935 29237 ft 409 kts 350°
2026-04-30 13:16 31.18602 121.34086 29541 ft 415 kts 353°
2026-04-30 13:16 31.21512 121.34687 29773 ft 435 kts
2026-04-30 13:16 31.24379 121.36064 30039 ft 457 kts 18°
2026-04-30 13:17 31.29155 121.41384 30690 ft 496 kts 50°
2026-04-30 13:17 31.30594 121.45093 31096 ft 508 kts 68°
2026-04-30 13:17 31.31764 121.51826 31759 ft 510 kts 77°
2026-04-30 13:18 31.32521 121.57276 32178 ft 509 kts 76°
2026-04-30 13:18 31.33764 121.65453 32650 ft 512 kts 76°
2026-04-30 13:18 31.34420 121.69532 32849 ft 514 kts 76°
2026-04-30 13:19 31.35282 121.73553 32960 ft 510 kts 63°
2026-04-30 13:19 31.36897 121.77142 33129 ft 494 kts 46°
2026-04-30 13:19 31.39168 121.80006 33393 ft 472 kts 29°
2026-04-30 13:19 31.41863 121.82025 33642 ft 450 kts 14°
2026-04-30 13:20 31.44759 121.83183 33838 ft 431 kts
2026-04-30 13:20 31.47697 121.83529 33966 ft 414 kts 347°
2026-04-30 13:20 31.50531 121.83261 34101 ft 408 kts 342°
2026-04-30 13:20 31.53365 121.82862 34150 ft 412 kts 342°
2026-04-30 13:21 31.59141 121.82065 34169 ft 421 kts 343°
2026-04-30 13:22 31.67937 121.80957 34153 ft 422 kts 344°
2026-04-30 13:22 31.76696 121.79886 34167 ft 424 kts 343°
2026-04-30 13:23 31.85443 121.78810 34146 ft 422 kts 345°
2026-04-30 13:24 31.97141 121.77427 34154 ft 424 kts 345°
2026-04-30 13:25 32.08824 121.76053 34155 ft 422 kts 345°
2026-04-30 13:26 32.23403 121.74338 34150 ft 422 kts 346°
2026-04-30 13:28 32.37969 121.72607 34154 ft 420 kts 346°
2026-04-30 13:28 32.46657 121.71570 34153 ft 420 kts 346°
2026-04-30 13:29 32.58286 121.70179 34138 ft 420 kts 346°
2026-04-30 13:31 32.72801 121.68439 34036 ft 420 kts 346°
2026-04-30 13:31 32.81523 121.67390 34141 ft 420 kts 347°
2026-04-30 13:32 32.87320 121.66692 34167 ft 419 kts 347°
2026-04-30 13:33 32.98923 121.65289 34129 ft 419 kts 347°
2026-04-30 13:34 33.07607 121.64234 34127 ft 419 kts 347°
2026-04-30 13:35 33.19171 121.62778 34121 ft 415 kts 345°
2026-04-30 13:36 33.30232 121.59462 34126 ft 407 kts 334°
2026-04-30 13:36 33.37996 121.55597 34110 ft 404 kts 332°
2026-04-30 13:37 33.45717 121.51614 34109 ft 404 kts 332°
2026-04-30 13:38 33.53461 121.47612 34092 ft 403 kts 332°
2026-04-30 13:39 33.63730 121.42293 34115 ft 403 kts 332°
2026-04-30 13:40 33.71512 121.38439 34108 ft 404 kts 335°
2026-04-30 13:40 33.76731 121.36009 34122 ft 403 kts 335°
2026-04-30 13:41 33.81934 121.33551 34116 ft 403 kts 334°
2026-04-30 13:41 33.87129 121.31069 34146 ft 401 kts 334°
2026-04-30 13:42 33.92303 121.28608 34118 ft 401 kts 334°
2026-04-30 13:42 34.00071 121.24914 34104 ft 401 kts 335°
2026-04-30 13:43 34.05257 121.22442 34112 ft 399 kts 335°
2026-04-30 13:43 34.10407 121.19989 34038 ft 400 kts 335°
2026-04-30 13:44 34.15586 121.17530 34088 ft 401 kts 335°
2026-04-30 13:44 34.20783 121.15061 34105 ft 401 kts 335°
2026-04-30 13:45 34.28515 121.11363 34109 ft 399 kts 335°
2026-04-30 13:46 34.33659 121.08896 34127 ft 398 kts 335°
2026-04-30 13:46 34.38804 121.06429 34103 ft 397 kts 335°
2026-04-30 13:47 34.43925 121.03967 34100 ft 397 kts 335°
2026-04-30 13:47 34.49040 121.01505 34093 ft 396 kts 335°
2026-04-30 13:48 34.54146 120.99041 34098 ft 395 kts 336°
2026-04-30 13:48 34.59252 120.96579 34173 ft 395 kts 336°
2026-04-30 13:49 34.64336 120.94121 34109 ft 394 kts 336°
2026-04-30 13:49 34.69417 120.91664 34108 ft 395 kts 336°
2026-04-30 13:50 34.74505 120.89199 34097 ft 393 kts 336°
2026-04-30 13:50 34.82084 120.85518 34088 ft 392 kts 336°
2026-04-30 13:51 34.87134 120.83065 34084 ft 392 kts 337°
2026-04-30 13:51 34.92195 120.80600 34086 ft 391 kts 337°
2026-04-30 13:52 34.97232 120.78141 34094 ft 391 kts 337°
2026-04-30 13:52 35.02259 120.75687 34085 ft 390 kts 336°
2026-04-30 13:53 35.07287 120.73230 34085 ft 390 kts 337°
2026-04-30 13:53 35.12334 120.70761 34086 ft 390 kts 337°
2026-04-30 13:54 35.17371 120.68314 34098 ft 391 kts 337°
2026-04-30 13:54 35.22396 120.65883 34091 ft 389 kts 337°
2026-04-30 13:55 35.27434 120.63440 34087 ft 389 kts 337°
2026-04-30 13:55 35.32478 120.60978 34072 ft 388 kts 337°
2026-04-30 13:56 35.37498 120.58531 34078 ft 388 kts 337°
2026-04-30 13:56 35.42504 120.56111 34080 ft 388 kts 338°
2026-04-30 13:57 35.47513 120.53696 34068 ft 386 kts 338°
2026-04-30 13:57 35.52498 120.51280 34071 ft 386 kts 338°
2026-04-30 13:58 35.59983 120.47636 34068 ft 388 kts 338°
2026-04-30 13:59 35.64981 120.45192 34065 ft 386 kts 338°
2026-04-30 13:59 35.69953 120.42758 34064 ft 386 kts 338°
2026-04-30 14:00 35.74938 120.40314 34070 ft 385 kts 338°
2026-04-30 14:00 35.82375 120.36662 34052 ft 383 kts 339°
2026-04-30 14:01 35.87320 120.34224 34058 ft 384 kts 338°
2026-04-30 14:01 35.92341 120.32040 34059 ft 383 kts 344°
2026-04-30 14:02 35.97594 120.30867 34062 ft 383 kts 352°
2026-04-30 14:02 36.02936 120.30765 34032 ft 388 kts
2026-04-30 14:03 36.08283 120.31721 34049 ft 390 kts
2026-04-30 14:03 36.13591 120.33058 34040 ft 391 kts
2026-04-30 14:04 36.18917 120.34430 34029 ft 389 kts
2026-04-30 14:04 36.24223 120.35802 34041 ft 390 kts
2026-04-30 14:05 36.29527 120.37312 34033 ft 392 kts 11°
2026-04-30 14:05 36.34770 120.39269 34042 ft 392 kts 12°
2026-04-30 14:06 36.42574 120.42276 34012 ft 393 kts 12°
2026-04-30 14:07 36.50416 120.45304 34045 ft 392 kts 12°
2026-04-30 14:08 36.58250 120.48342 34021 ft 393 kts 13°
2026-04-30 14:08 36.65999 120.51626 34020 ft 392 kts 14°
2026-04-30 14:09 36.71201 120.53844 34037 ft 393 kts 14°
2026-04-30 14:10 36.78943 120.57147 34029 ft 392 kts 14°
2026-04-30 14:10 36.84087 120.59343 34038 ft 392 kts 14°
2026-04-30 14:11 36.89265 120.61543 34031 ft 393 kts 13°
2026-04-30 14:11 36.94534 120.63286 33746 ft 389 kts
2026-04-30 14:11 36.97176 120.63899 33530 ft 385 kts
2026-04-30 14:12 36.99816 120.64411 33324 ft 382 kts
2026-04-30 14:12 37.02447 120.64905 33119 ft 377 kts
2026-04-30 14:12 37.05031 120.65395 32886 ft 374 kts
2026-04-30 14:12 37.06764 120.65727 32730 ft 373 kts
2026-04-30 14:13 37.10186 120.66384 32425 ft 370 kts
2026-04-30 14:13 37.12736 120.66864 32194 ft 366 kts
2026-04-30 14:13 37.15265 120.67343 31958 ft 364 kts
2026-04-30 14:13 37.17760 120.67809 31725 ft 361 kts
2026-04-30 14:14 37.20242 120.68277 31493 ft 358 kts
2026-04-30 14:14 37.22705 120.68737 31259 ft 355 kts
2026-04-30 14:14 37.25154 120.69194 31025 ft 353 kts
2026-04-30 14:14 37.27571 120.69647 30785 ft 350 kts
2026-04-30 14:15 37.29959 120.70097 30553 ft 347 kts
2026-04-30 14:15 37.32325 120.70542 30317 ft 344 kts
2026-04-30 14:15 37.34674 120.70980 30069 ft 341 kts
2026-04-30 14:15 37.37008 120.71418 29820 ft 340 kts
2026-04-30 14:16 37.39334 120.71857 29561 ft 339 kts
2026-04-30 14:16 37.41677 120.72295 29305 ft 338 kts
2026-04-30 14:16 37.43991 120.72734 29053 ft 337 kts
2026-04-30 14:16 37.46295 120.73166 28799 ft 335 kts
2026-04-30 14:17 37.48587 120.73600 28545 ft 334 kts
2026-04-30 14:17 37.50878 120.74030 28292 ft 334 kts
2026-04-30 14:17 37.53163 120.74457 28038 ft 332 kts
2026-04-30 14:17 37.55434 120.74885 27781 ft 331 kts
2026-04-30 14:18 37.57727 120.75314 27523 ft 332 kts
2026-04-30 14:18 37.60006 120.75647 27273 ft 330 kts
2026-04-30 14:18 37.64541 120.76194 26767 ft 327 kts
2026-04-30 14:19 37.69043 120.76734 26250 ft 326 kts
2026-04-30 14:19 37.71294 120.77004 25997 ft 325 kts
2026-04-30 14:19 37.73558 120.77274 25747 ft 325 kts
2026-04-30 14:20 37.75799 120.77541 25496 ft 324 kts
2026-04-30 14:20 37.78045 120.77808 25240 ft 324 kts
2026-04-30 14:20 37.82501 120.78340 24731 ft 321 kts
2026-04-30 14:21 37.84712 120.78606 24475 ft 320 kts
2026-04-30 14:21 37.86921 120.78871 24226 ft 320 kts
2026-04-30 14:21 37.91335 120.79400 23713 ft 318 kts
2026-04-30 14:22 37.93532 120.79663 23461 ft 317 kts
2026-04-30 14:22 37.97901 120.80213 22950 ft 316 kts
2026-04-30 14:22 38.00034 120.80816 22698 ft 315 kts 15°
2026-04-30 14:23 38.04017 120.83097 22176 ft 316 kts 27°
2026-04-30 14:23 38.07779 120.85886 21680 ft 313 kts 28°
2026-04-30 14:24 38.11520 120.88683 21173 ft 312 kts 28°
2026-04-30 14:24 38.13380 120.90072 20925 ft 310 kts 28°
2026-04-30 14:25 38.17083 120.92849 20419 ft 308 kts 28°
2026-04-30 14:25 38.20744 120.95604 19935 ft 306 kts 28°
2026-04-30 14:26 38.24237 120.98621 19446 ft 307 kts 41°
2026-04-30 14:26 38.25571 121.00745 19114 ft 312 kts 52°
2026-04-30 14:26 38.27456 121.05745 18361 ft 313 kts 59°
2026-04-30 14:27 38.28332 121.08259 17975 ft 312 kts 60°
2026-04-30 14:27 38.29200 121.10761 17580 ft 310 kts 60°
2026-04-30 14:27 38.30064 121.13254 17184 ft 309 kts 60°
2026-04-30 14:28 38.31797 121.18244 16369 ft 308 kts 60°
2026-04-30 14:28 38.32658 121.20727 15967 ft 307 kts 60°
2026-04-30 14:28 38.33521 121.23217 15566 ft 306 kts 60°
2026-04-30 14:28 38.34377 121.25690 15167 ft 306 kts 60°
2026-04-30 14:29 38.36084 121.30626 14369 ft 304 kts 60°
2026-04-30 14:29 38.37498 121.34715 13717 ft 302 kts 60°
2026-04-30 14:30 38.40303 121.42853 12414 ft 300 kts 60°
2026-04-30 14:31 38.43069 121.46443 11559 ft 286 kts 19°
2026-04-30 14:31 38.46855 121.47876 10797 ft 284 kts 15°
2026-04-30 14:31 38.48749 121.48573 10494 ft 280 kts 15°
2026-04-30 14:32 38.52440 121.49930 10013 ft 267 kts 15°
2026-04-30 14:32 38.54199 121.50566 9773 ft 261 kts 13°
2026-04-30 14:32 38.55970 121.50940 9772 ft 258 kts
2026-04-30 14:33 38.57767 121.50980 9790 ft 259 kts 358°
2026-04-30 14:33 38.61361 121.50723 9795 ft 259 kts 357°
2026-04-30 14:33 38.63170 121.50581 9799 ft 260 kts 357°
2026-04-30 14:34 38.64976 121.50439 9799 ft 260 kts 357°
2026-04-30 14:34 38.66776 121.50298 9799 ft 260 kts 357°
2026-04-30 14:34 38.68579 121.50158 9797 ft 260 kts 357°
2026-04-30 14:34 38.70381 121.50016 9789 ft 260 kts 357°
2026-04-30 14:35 38.73395 121.49781 9795 ft 261 kts 357°
2026-04-30 14:35 38.75818 121.49592 9803 ft 260 kts 357°
2026-04-30 14:35 38.77619 121.49452 9783 ft 259 kts 357°
2026-04-30 14:36 38.79412 121.49313 9795 ft 258 kts 357°
2026-04-30 14:36 38.81211 121.49171 9770 ft 259 kts 357°
2026-04-30 14:36 38.83007 121.49031 9693 ft 256 kts 358°
2026-04-30 14:36 38.84749 121.48893 9615 ft 244 kts 357°
2026-04-30 14:37 38.86405 121.48762 9538 ft 235 kts 358°
2026-04-30 14:37 38.88047 121.48634 9432 ft 232 kts 358°
2026-04-30 14:37 38.89650 121.48510 9110 ft 231 kts 357°
2026-04-30 14:37 38.91249 121.48389 8807 ft 230 kts 357°
2026-04-30 14:38 38.92844 121.48266 8510 ft 228 kts 357°
2026-04-30 14:38 38.94426 121.48144 8213 ft 227 kts 357°
2026-04-30 14:38 38.95994 121.48024 7923 ft 225 kts 357°
2026-04-30 14:38 38.97560 121.47902 7634 ft 224 kts 357°
2026-04-30 14:39 38.99101 121.47783 7349 ft 222 kts 356°
2026-04-30 14:39 39.00636 121.47665 7068 ft 221 kts 356°
2026-04-30 14:39 39.02171 121.47546 6797 ft 222 kts 356°
2026-04-30 14:40 39.05197 121.46937 6174 ft 225 kts 327°
2026-04-30 14:40 39.06189 121.45393 5870 ft 229 kts 292°
2026-04-30 14:40 39.06447 121.43379 5603 ft 231 kts 277°
2026-04-30 14:40 39.06574 121.41322 5349 ft 231 kts 277°
2026-04-30 14:41 39.06715 121.39279 5078 ft 230 kts 277°
2026-04-30 14:41 39.06862 121.37246 4811 ft 229 kts 277°
2026-04-30 14:41 39.07009 121.35227 4545 ft 227 kts 277°
2026-04-30 14:41 39.07158 121.33214 4285 ft 227 kts 277°
2026-04-30 14:42 39.07308 121.31189 4020 ft 227 kts 276°
2026-04-30 14:42 39.07362 121.29183 3860 ft 223 kts 261°
2026-04-30 14:42 39.06639 121.27508 3834 ft 214 kts 221°
2026-04-30 14:42 39.05300 121.26715 3692 ft 217 kts 189°
2026-04-30 14:43 39.03800 121.26537 3438 ft 218 kts 186°
2026-04-30 14:43 39.02289 121.26400 3177 ft 218 kts 186°
2026-04-30 14:43 39.00785 121.26265 3018 ft 212 kts 181°
2026-04-30 14:43 38.99426 121.26738 3006 ft 197 kts 148°
2026-04-30 14:44 38.98575 121.27993 2953 ft 181 kts 114°
2026-04-30 14:44 38.98308 121.29469 2931 ft 163 kts 95°
2026-04-30 14:44 38.98222 121.30895 2944 ft 160 kts 92°
2026-04-30 14:44 38.98149 121.32322 2977 ft 161 kts 93°
2026-04-30 14:45 38.98066 121.33748 2960 ft 161 kts 94°
2026-04-30 14:45 38.97973 121.35170 2825 ft 158 kts 94°
2026-04-30 14:45 38.97876 121.36554 2575 ft 154 kts 95°
2026-04-30 14:45 38.97778 121.37916 2360 ft 153 kts 95°
2026-04-30 14:46 38.97677 121.39270 2149 ft 152 kts 96°
2026-04-30 14:46 38.97577 121.40611 1941 ft 152 kts 96°
2026-04-30 14:46 38.97424 121.41935 1727 ft 150 kts 107°
2026-04-30 14:46 38.97179 121.42768 1596 ft 149 kts 116°
2026-04-30 14:47 38.96655 121.44376 1333 ft 147 kts 106°
2026-04-30 14:47 38.96507 121.45679 1175 ft 147 kts 89°
2026-04-30 14:47 38.96649 121.46965 971 ft 146 kts 77°
2026-04-30 14:47 38.96849 121.48232 768 ft 145 kts 83°
2026-04-30 14:48 38.96883 121.49513 548 ft 144 kts 93°
2026-04-30 14:48 38.96798 121.50784 358 ft 143 kts 95°
2026-04-30 14:48 38.96707 121.52045 160 ft 142 kts 95°
2026-04-30 14:48 38.96611 121.53249 109 ft 126 kts 95°
2026-04-30 14:49 38.96544 121.54145 108 ft 76 kts 95°
2026-04-30 14:49 38.96510 121.54595 108 ft 26 kts 95°
2026-04-30 14:49 38.96492 121.54825 108 ft 25 kts 95°
2026-04-30 14:49 38.96476 121.55045 108 ft 24 kts 95°
2026-04-30 14:50 38.96449 121.55387 108 ft 10 kts 96°
2026-04-30 14:50 38.96412 121.55463 108 ft 11 kts 161°
2026-04-30 14:51 38.96276 121.55446 108 ft 8 kts 209°
2026-04-30 14:51 38.96253 121.55378 108 ft 10 kts 273°
2026-04-30 14:51 38.96268 121.55184 108 ft 12 kts 275°
2026-04-30 14:52 38.96276 121.55071 108 ft 13 kts 277°
2026-04-30 14:52 38.96318 121.54826 108 ft 15 kts 275°
2026-04-30 14:52 38.96327 121.54701 108 ft 12 kts 275°
2026-04-30 14:53 38.96345 121.54473 108 ft 14 kts 275°
2026-04-30 14:53 38.96355 121.54346 107 ft 15 kts 275°
2026-04-30 14:54 38.96373 121.54113 107 ft 12 kts 276°
2026-04-30 14:54 38.96331 121.54039 107 ft 7 kts 181°
2026-04-30 14:55 38.96252 121.54036 107 ft 3 kts 182°
2026-04-30 14:55 38.96245 121.54036 107 ft 0 kts 182°